Temperature
9 11 11 11 11 12 12 12 12 12 10 11 11 11 11 10 10 10 9 9 8 8 7 7 7 8 8 8 9 9 9 9 9 9 9 9 9 9 9 10 10 10 10 10
10 10 10 10 10 10 10 11 11 11 10 10 11 11 11 10 9 9 9 8 8 7 7 7 7 7 8 8 8 8 8 9 9 9 9 9 9 9 9 9 9 9 9 9
10 10 9 9 9 10 10 10 10 10 9 9 10 11 11 10 9 8 7 7 7 7 7 6 6 7 7 7 8 8 8 8 8 8 8 8 8 8 8 9 9 9 9 9
9 8 8 9 9 9 10 9 9 9 9 10 10 11 12 10 9 9 8 7 7 6 6 6 6 6 7 7 7 7 8 8 8 8 8 8 8 8 8 8 8 8 8 8
8 8 8 8 9 9 9 8 8 8 9 9 10 10 12 10 9 9 8 7 6 6 5 5 5 6 6 7 7 7 7 7 7 7 7 7 7 7 7 7 8 7 7 8
7 7 7 8 7 8 7 8 8 8 8 9 10 10 12 11 10 9 8 7 6 5 5 5 5 5 6 6 6 6 7 7 7 7 7 7 7 7 7 7 7 7 7 7
7 7 6 7 7 7 7 8 9 9 9 10 9 9 11 10 9 8 8 7 5 5 4 4 5 5 5 5 6 6 6 6 6 6 6 6 6 6 6 6 6 6 6 6
8 8 7 6 7 8 8 9 9 10 10 10 8 9 10 8 7 6 6 5 5 4 4 4 4 4 4 5 5 5 5 5 6 6 6 6 6 6 6 6 6 6 6 6
8 8 6 6 6 7 7 8 8 8 7 8 10 9 9 7 7 6 6 5 5 4 3 3 4 4 4 4 4 4 5 5 5 5 5 5 5 5 5 5 5 5 5 5
6 6 6 5 5 6 7 7 7 7 8 9 10 10 10 8 7 7 6 5 4 4 3 3 3 4 4 4 4 4 4 4 4 4 4 4 4 4 4 4 4 4 5 5
5 5 5 5 5 6 6 6 6 7 7 9 10 11 9 8 7 7 6 5 4 4 3 3 3 3 3 4 3 3 3 3 3 4 4 3 4 4 4 4 4 4 4 4
4 5 5 5 4 4 5 6 6 7 6 7 9 10 7 7 6 6 5 4 3 3 3 3 3 3 3 3 3 3 3 3 3 3 3 3 3 3 3 3 3 3 3 3
3 4 5 5 4 3 4 4 4 5 6 6 8 9 6 5 5 5 4 4 3 3 3 3 3 3 3 3 3 3 3 3 3 3 3 3 2 2 2 3 3 3 3 3
3 3 5 7 6 5 4 3 3 4 5 6 7 8 7 6 6 5 4 4 3 3 3 3 2 2 2 2 3 3 2 2 2 2 2 2 2 2 2 2 2 2 2 2
3 3 3 3 3 3 4 3 3 3 5 6 6 6 7 7 6 5 4 3 3 3 2 2 2 2 2 2 2 2 2 2 2 2 2 2 1 1 1 1 1 1 1 2
2 3 2 2 2 3 3 3 3 3 4 4 5 5 6 6 5 4 4 3 2 2 2 2 2 2 2 2 2 2 2 2 1 1 1 1 1 1 1 1 1 1 1 1
2 2 3 4 2 2 4 4 3 3 3 4 5 6 5 5 4 4 3 3 2 2 2 2 2 2 2 2 2 1 1 1 1 1 1 1 1 0 0 0 0 0 0 0
1 1 2 3 2 3 6 3 3 3 3 3 4 4 4 4 4 3 3 3 2 2 2 2 2 2 2 2 1 1 1 1 1 1 0 0 0 -0 -0 -0 -0 -0 -0 -0
1 1 2 2 3 5 5 3 2 2 3 3 3 4 3 2 2 3 3 3 2 2 2 2 2 2 2 1 1 1 1 0 0 0 0 -0 -0 -0 -1 -1 -1 -1 -1 -1
-0 0 2 2 3 4 6 3 1 3 4 4 2 3 2 2 4 5 3 3 2 2 2 2 1 1 1 1 1 0 0 0 -0 -0 -0 -0 -1 -1 -1 -1 -1 -1 -1 -1
-0 0 1 2 3 4 4 1 1 4 5 3 2 2 1 2 3 3 3 2 2 2 1 1 1 1 1 1 0 0 -0 -0 -0 -0 -1 -1 -1 -1 -1 -2 -2 -2 -2 -2
1 1 1 2 2 4 2 1 3 4 3 2 2 2 1 1 2 2 2 1 1 1 1 1 1 0 0 0 -0 -0 -1 -1 -1 -1 -1 -1 -1 -2 -2 -2 -2 -2 -2 -2
1 2 2 2 4 3 1 2 2 2 2 2 2 2 1 1 1 1 1 1 1 0 0 0 -0 -0 -0 -0 -1 -1 -1 -1 -1 -1 -1 -2 -2 -2 -2 -2 -3 -3 -3 -3
0 -1 0 0 2 2 1 1 2 2 2 2 2 2 2 1 1 1 1 0 0 -0 -0 -0 -1 -1 -1 -1 -1 -1 -1 -1 -2 -2 -2 -2 -2 -2 -3 -3 -3 -3 -3 -4
1 -1 -0 -0 1 1 1 2 2 2 2 2 2 2 1 1 1 1 0 0 -0 -1 -1 -1 -1 -1 -1 -1 -2 -2 -2 -2 -2 -2 -2 -3 -3 -3 -3 -3 -3 -4 -4 -4
-0 -1 1 2 2 2 3 3 2 2 2 2 1 1 1 1 1 0 0 -0 -0 -1 -1 -1 -1 -1 -1 -2 -2 -2 -2 -2 -3 -3 -3 -3 -3 -3 -4 -4 -4 -4 -4 -4
Wind_Speed
2 4 6 7 8 5 4 5 7 5 2 5 9 10 8 6 7 7 7 6 6 4 2 1 1 1 1 0 0 1 1 1 1 1 1 1 1 1 1 2 2 2 2 3
4 7 6 4 5 5 6 7 7 4 2 4 8 10 9 8 7 7 7 7 6 4 3 1 1 1 1 1 1 1 1 1 1 1 1 1 1 1 1 2 2 2 2 3
7 1 3 6 6 7 8 9 8 6 3 4 6 8 7 6 5 5 5 5 5 4 4 3 2 2 1 1 1 1 1 1 1 1 1 1 1 1 1 1 1 1 1 3
4 3 4 6 7 8 7 6 7 6 5 4 4 7 7 6 6 5 5 4 4 3 3 3 2 1 1 1 1 1 1 1 1 2 2 2 1 1 1 0 0 1 1 1
4 3 5 7 6 6 3 2 4 6 6 6 6 7 6 4 7 7 5 5 4 3 2 1 1 1 1 1 1 2 1 1 1 2 2 2 2 1 0 0 1 0 1 1
3 2 3 3 1 4 4 3 2 3 4 7 8 8 7 5 7 5 5 4 3 2 1 1 0 0 0 0 1 1 1 1 1 2 2 2 2 2 2 1 0 0 0 1
3 4 3 2 4 5 5 5 3 4 5 7 4 7 7 3 4 5 5 4 3 2 1 1 1 1 1 0 0 1 1 1 1 2 2 2 2 2 2 1 1 1 0 0
5 5 4 4 5 6 8 7 6 5 6 4 4 7 4 1 1 2 3 3 3 2 2 1 1 1 1 0 0 1 1 2 2 2 2 2 1 1 1 1 1 1 1 0
5 4 1 2 2 4 6 7 4 3 4 5 6 5 5 2 3 3 4 3 2 2 1 1 1 1 1 1 0 1 1 1 2 2 2 2 2 1 1 1 1 0 0 0
3 3 3 1 2 2 3 4 4 5 5 6 7 8 5 5 5 5 5 4 3 2 1 1 0 1 1 1 1 0 1 1 1 1 1 1 1 1 0 0 0 0 0 0
3 3 2 3 6 7 5 5 5 4 4 5 6 5 1 5 5 6 6 4 3 3 2 1 0 0 0 0 0 0 1 1 1 1 1 1 1 0 1 0 0 0 0 0
3 3 4 5 2 2 5 7 8 6 6 5 6 6 2 2 3 5 5 4 3 3 2 2 1 1 1 0 0 0 0 1 1 1 1 1 1 0 0 0 0 1 1 1
3 3 3 3 4 4 5 6 7 5 4 7 8 6 1 1 3 4 5 4 4 3 3 2 2 2 2 1 1 1 1 1 1 1 1 1 1 1 1 1 1 1 1 2
3 4 6 7 4 3 5 7 8 7 7 9 12 12 8 7 6 5 6 5 5 4 4 3 3 3 2 2 2 2 2 2 2 2 2 2 2 2 2 1 1 1 2 2
4 5 6 7 6 6 8 10 11 13 13 12 13 14 13 11 10 9 7 6 6 6 6 6 5 4 4 3 3 3 3 2 2 3 3 2 2 2 2 2 2 2 2 3
3 4 4 7 7 8 11 13 14 16 15 16 16 17 13 11 9 9 9 8 8 7 7 6 6 5 5 4 4 3 3 3 3 3 3 2 2 2 2 2 2 2 3 3
4 5 4 6 4 5 10 12 15 13 13 13 16 14 9 9 10 10 9 9 9 8 7 7 7 6 5 5 4 4 4 3 4 3 3 3 3 3 3 2 3 3 3 3
6 5 3 3 2 9 5 1 8 11 13 13 13 11 10 11 9 9 9 9 9 8 7 7 6 6 5 4 4 4 3 3 4 4 3 3 3 3 3 3 3 3 3 4
7 6 4 4 6 10 7 4 5 8 9 11 14 14 11 7 7 8 8 8 9 8 7 7 6 5 5 4 4 4 4 4 4 4 4 4 4 4 4 4 4 4 4 4
4 5 5 5 6 7 4 2 3 3 7 5 9 11 8 5 7 6 4 6 7 6 6 5 5 5 5 4 4 4 5 5 5 5 4 4 4 5 5 5 4 4 4 5
5 6 8 9 8 8 3 3 6 5 4 1 4 6 7 8 7 4 3 4 5 5 5 5 5 5 5 4 4 5 5 5 5 4 4 4 5 5 5 5 4 4 4 5
8 7 8 7 8 9 5 7 8 5 2 2 4 5 6 7 6 5 4 4 4 4 4 5 4 4 4 4 5 6 6 5 4 4 4 4 4 4 4 5 5 5 5 5
9 8 6 9 8 3 7 8 6 4 4 5 5 5 6 6 6 5 5 5 5 4 4 4 4 4 3 4 5 6 5 4 4 4 4 4 4 4 4 4 5 4 4 4
7 5 6 8 11 9 9 10 9 8 8 7 6 6 6 6 6 6 5 5 5 5 4 4 4 5 4 4 5 5 4 4 4 5 4 4 4 4 4 4 4 4 4 4
8 7 8 11 11 9 10 12 12 10 8 7 6 6 7 6 6 6 6 6 5 5 4 4 5 5 5 4 5 4 4 5 5 5 4 4 4 4 4 4 4 5 6 6
8 9 10 10 8 7 8 7 9 9 10 9 7 7 7 7 7 6 6 5 5 5 4 4 5 5 5 4 4 4 4 5 5 5 5 4 4 4 4 4 4 6 8 8
Wind_Direction
171 197 210 211 217 240 224 227 241 250 260 242 246 258 256 250 246 246 244 237 232 234 242 253 245 221 193 164 128 111 125 114 122 134 157 174 168 159 127 115 139 142 156 162
186 224 233 217 203 210 221 231 248 258 258 261 264 268 265 249 243 244 244 242 237 232 232 234 230 205 208 198 174 171 162 129 125 137 179 204 187 173 141 109 102 126 158 151
213 209 197 198 198 211 228 235 242 252 275 251 274 262 244 241 233 236 243 244 238 230 230 233 231 218 201 218 227 211 185 148 129 129 135 120 121 122 143 136 131 106 165 166
224 227 195 203 219 223 237 234 235 241 244 246 241 269 246 234 240 238 235 233 238 232 226 231 231 235 224 235 231 214 180 145 150 148 136 146 158 164 223 258 104 122 134 149
214 202 205 221 231 218 222 184 217 232 242 254 234 250 257 218 240 237 231 229 234 238 228 225 239 249 255 242 226 212 179 156 153 151 148 155 153 141 130 131 65 354 142 112
234 221 229 226 216 199 162 150 163 210 230 246 236 231 258 228 231 234 225 219 212 209 198 176 70 18 319 277 219 208 175 163 165 162 161 158 152 145 120 103 129 239 212 152
234 221 203 192 171 169 188 189 212 219 225 245 204 229 253 257 242 231 218 208 192 167 143 106 63 36 6 310 195 202 176 175 181 176 169 167 166 157 151 174 230 242 243 354
217 224 195 201 211 200 200 213 225 241 245 258 215 233 251 306 260 215 196 187 165 143 120 96 67 33 360 356 180 195 190 192 191 188 185 174 168 169 176 201 224 245 253 326
222 224 148 203 237 215 196 215 247 252 274 266 242 246 264 209 208 197 186 177 176 156 142 123 79 31 12 13 70 185 193 196 199 196 189 181 173 169 173 185 210 221 283 320
234 237 232 230 194 227 242 186 189 208 228 248 251 245 241 200 205 201 199 199 193 176 171 150 83 6 1 9 26 138 180 192 198 187 176 164 173 175 179 193 196 180 335 333
224 215 211 199 212 214 189 196 212 214 242 244 254 247 219 214 208 206 210 205 201 199 202 209 244 303 20 74 75 134 169 177 194 196 182 175 181 135 106 138 244 283 320 277
200 218 232 234 250 302 234 221 209 220 225 237 256 261 93 220 218 218 219 212 208 212 213 211 227 242 205 165 163 192 206 201 217 216 192 184 186 173 182 280 303 297 292 293
172 192 208 230 218 212 227 227 226 230 233 235 242 250 118 229 240 228 223 223 222 220 224 228 236 238 222 213 215 216 219 224 219 213 204 199 209 224 244 266 278 272 278 285
188 218 237 249 264 210 224 225 215 215 230 241 246 257 258 254 249 243 238 236 237 238 241 240 245 243 229 226 226 221 217 212 206 202 206 216 234 245 251 262 269 276 276 275
201 236 247 263 268 255 251 243 229 231 239 245 254 257 262 260 258 257 250 246 244 243 242 242 246 246 235 229 226 221 218 215 212 210 211 221 234 244 249 255 262 268 272 275
202 229 246 263 258 256 262 250 237 240 244 248 258 265 267 270 266 259 252 245 241 241 239 238 241 242 237 230 227 220 217 216 220 221 223 224 228 234 240 248 255 259 265 270
196 197 229 262 280 277 263 241 228 232 232 233 243 253 261 259 253 251 248 242 240 239 235 231 233 235 234 230 225 224 221 216 217 222 225 226 232 239 246 253 255 259 267 272
199 209 223 252 243 246 257 217 219 232 244 237 246 256 256 260 271 266 251 241 240 239 233 230 232 232 229 222 218 214 211 212 218 226 231 230 235 246 256 259 263 270 273 273
213 204 205 214 242 266 269 230 205 218 254 236 239 250 258 272 281 263 239 236 239 237 233 228 226 222 217 218 212 205 208 213 221 229 234 235 236 242 249 256 263 268 270 273
202 212 213 215 234 248 260 165 175 204 262 235 229 242 247 236 254 257 225 235 239 237 231 224 217 212 214 216 207 208 216 219 227 232 236 235 236 239 246 254 259 262 264 268
189 207 218 227 240 259 255 152 161 210 257 226 222 232 225 230 254 289 245 236 234 232 225 216 209 213 217 213 205 217 224 229 234 236 236 235 236 240 246 252 255 258 262 268
201 201 210 214 231 248 171 164 206 246 303 247 246 238 236 250 269 270 251 242 234 228 222 214 213 221 222 213 210 223 232 233 229 228 230 233 235 238 241 246 253 255 259 265
219 220 218 216 233 269 187 211 236 253 254 257 253 250 247 255 260 256 250 242 237 231 226 221 215 224 233 226 218 229 234 223 220 224 231 233 235 237 240 244 250 254 256 261
232 232 236 251 256 253 242 245 250 249 255 265 260 252 243 251 252 249 245 240 234 232 227 219 213 222 233 232 230 233 229 217 217 222 228 231 232 237 239 243 246 250 253 258
239 211 233 252 262 271 258 242 245 250 257 260 258 251 242 241 247 244 241 236 232 232 226 216 216 225 233 232 232 232 222 209 215 222 226 229 232 238 242 245 248 251 252 256
228 220 225 245 245 241 256 253 246 246 247 247 249 255 250 241 243 243 242 237 231 228 222 220 225 229 234 231 231 230 222 211 212 220 225 228 230 235 242 249 258 253 254 266
Height
1498 1498 1495 1495 1497 1496 1495 1495 1495 1496 1500 1500 1496 1494 1495 1497 1497 1497 1497 1496 1497 1497 1497 1497 1497 1496 1496 1496 1496 1496 1497 1498 1498 1499 1500 1500 1501 1502 1502 1504 1505 1506 1507 1508
1497 1496 1497 1498 1499 1499 1498 1497 1496 1498 1501 1499 1495 1493 1492 1493 1494 1494 1494 1494 1494 1495 1495 1495 1495 1494 1494 1493 1494 1494 1495 1496 1496 1497 1498 1498 1499 1499 1500 1501 1502 1503 1505 1506
1492 1496 1499 1499 1499 1498 1497 1496 1495 1497 1500 1499 1497 1488 1487 1489 1491 1492 1492 1492 1492 1493 1492 1492 1492 1492 1492 1492 1492 1492 1493 1494 1494 1495 1496 1497 1497 1497 1498 1499 1500 1501 1502 1503
1495 1497 1498 1497 1497 1496 1495 1497 1498 1499 1498 1492 1495 1484 1478 1483 1486 1488 1489 1489 1489 1490 1490 1490 1489 1489 1489 1490 1490 1490 1491 1492 1492 1493 1494 1494 1495 1495 1496 1497 1498 1499 1500 1501
1494 1497 1497 1495 1496 1497 1496 1499 1499 1499 1498 1495 1492 1490 1474 1482 1481 1482 1485 1486 1487 1487 1488 1487 1487 1487 1487 1488 1488 1488 1489 1490 1490 1491 1492 1493 1493 1494 1495 1496 1496 1497 1498 1499
1496 1498 1497 1496 1498 1498 1499 1500 1500 1499 1497 1493 1484 1485 1471 1474 1476 1478 1481 1484 1485 1485 1486 1485 1485 1485 1485 1486 1486 1486 1487 1488 1488 1489 1490 1491 1491 1492 1493 1494 1494 1495 1496 1496
1493 1495 1497 1497 1497 1499 1498 1496 1494 1492 1490 1480 1484 1483 1472 1472 1476 1477 1479 1481 1483 1484 1484 1484 1484 1483 1484 1484 1484 1484 1485 1486 1486 1487 1488 1488 1489 1490 1490 1491 1492 1493 1494 1494
1487 1487 1493 1495 1493 1492 1493 1491 1487 1483 1477 1473 1486 1478 1469 1476 1477 1478 1479 1480 1481 1482 1483 1483 1483 1483 1482 1482 1482 1482 1483 1484 1485 1485 1486 1486 1487 1488 1488 1489 1490 1491 1491 1491
1484 1486 1494 1495 1495 1493 1491 1490 1489 1488 1489 1483 1471 1472 1472 1475 1476 1478 1478 1479 1480 1481 1481 1482 1482 1482 1481 1481 1481 1481 1482 1482 1483 1483 1484 1484 1485 1486 1486 1487 1488 1488 1488 1488
1489 1490 1492 1495 1495 1495 1492 1490 1492 1488 1483 1474 1465 1466 1462 1469 1471 1474 1476 1477 1479 1480 1480 1480 1481 1481 1480 1480 1480 1480 1480 1480 1481 1481 1481 1482 1483 1483 1484 1484 1485 1485 1485 1486
1492 1491 1492 1493 1491 1488 1492 1493 1490 1486 1482 1473 1465 1460 1463 1466 1469 1471 1473 1475 1476 1478 1478 1478 1479 1479 1479 1479 1479 1479 1479 1479 1479 1479 1479 1480 1480 1481 1481 1482 1482 1483 1483 1483
1492 1489 1487 1489 1492 1493 1490 1487 1487 1484 1483 1480 1469 1464 1467 1468 1469 1471 1472 1474 1475 1476 1477 1477 1477 1477 1477 1477 1477 1477 1477 1477 1477 1477 1477 1478 1478 1478 1479 1479 1479 1480 1480 1480
1492 1491 1486 1484 1491 1494 1491 1489 1489 1488 1484 1478 1470 1464 1468 1469 1470 1471 1472 1473 1473 1474 1474 1475 1475 1475 1475 1475 1475 1476 1476 1476 1475 1476 1476 1476 1476 1476 1476 1477 1477 1477 1477 1477
1491 1490 1484 1475 1473 1481 1486 1488 1488 1486 1479 1474 1468 1462 1465 1466 1468 1469 1470 1471 1471 1471 1472 1472 1472 1473 1473 1473 1473 1473 1473 1473 1473 1473 1474 1474 1474 1474 1474 1474 1474 1474 1474 1474
1489 1486 1485 1483 1484 1483 1482 1482 1484 1483 1475 1472 1464 1464 1461 1463 1465 1466 1467 1468 1468 1469 1469 1469 1469 1470 1470 1470 1470 1471 1471 1471 1471 1471 1471 1471 1471 1471 1471 1471 1471 1471 1471 1471
1487 1485 1486 1484 1483 1482 1479 1476 1478 1477 1474 1471 1468 1463 1460 1462 1464 1464 1464 1465 1465 1465 1465 1465 1466 1466 1466 1467 1467 1468 1468 1468 1469 1468 1468 1468 1468 1468 1468 1468 1467 1467 1467 1467
1484 1485 1482 1475 1481 1479 1470 1465 1468 1467 1465 1463 1460 1455 1457 1458 1459 1459 1459 1460 1460 1461 1461 1462 1462 1462 1463 1464 1464 1465 1465 1465 1465 1465 1465 1465 1465 1465 1465 1464 1464 1464 1463 1463
1483 1482 1480 1477 1479 1474 1455 1460 1460 1460 1458 1458 1455 1453 1454 1454 1454 1454 1454 1455 1456 1457 1457 1458 1459 1459 1460 1461 1461 1462 1462 1462 1462 1462 1462 1462 1462 1461 1461 1461 1460 1460 1460 1459
1479 1479 1477 1475 1469 1457 1454 1457 1459 1459 1454 1452 1452 1451 1452 1452 1452 1450 1450 1451 1452 1453 1454 1455 1455 1456 1456 1457 1458 1458 1459 1459 1459 1459 1459 1459 1458 1458 1458 1457 1457 1456 1456 1455
1478 1478 1476 1473 1465 1456 1446 1453 1455 1457 1450 1446 1447 1447 1448 1450 1448 1444 1446 1447 1448 1449 1450 1451 1451 1452 1453 1453 1454 1454 1455 1455 1455 1455 1455 1455 1455 1455 1454 1454 1453 1453 1452 1451
1474 1474 1471 1467 1460 1448 1448 1453 1455 1453 1442 1443 1443 1443 1445 1445 1444 1443 1443 1443 1444 1445 1446 1447 1447 1448 1449 1449 1450 1450 1451 1451 1451 1451 1451 1451 1451 1451 1451 1450 1450 1449 1448 1448
1462 1462 1463 1461 1457 1448 1447 1450 1448 1441 1441 1441 1440 1441 1441 1441 1440 1440 1440 1440 1440 1441 1442 1443 1443 1444 1445 1445 1446 1446 1446 1447 1447 1447 1447 1447 1447 1447 1446 1446 1446 1445 1444 1443
1456 1453 1449 1449 1443 1440 1441 1440 1439 1439 1439 1438 1438 1438 1438 1437 1437 1437 1437 1437 1437 1438 1438 1439 1439 1440 1441 1441 1442 1442 1442 1442 1443 1443 1443 1443 1442 1442 1442 1442 1441 1441 1440 1439
1450 1452 1450 1446 1438 1437 1437 1436 1436 1436 1436 1435 1435 1435 1435 1434 1434 1433 1434 1434 1434 1434 1435 1435 1436 1436 1436 1437 1437 1437 1438 1438 1438 1438 1438 1438 1438 1438 1438 1437 1437 1437 1436 1435
1442 1446 1444 1440 1435 1434 1432 1431 1432 1432 1432 1432 1432 1432 1431 1431 1430 1430 1430 1430 1430 1431 1431 1431 1432 1432 1432 1433 1433 1433 1433 1434 1434 1434 1434 1434 1434 1434 1433 1433 1433 1432 1432 1431
1437 1437 1436 1428 1428 1428 1426 1426 1427 1427 1427 1427 1427 1427 1427 1427 1427 1427 1426 1426 1427 1427 1427 1428 1428 1428 1428 1429 1429 1429 1429 1429 1430 1430 1430 1430 1430 1430 1429 1429 1428 1427 1427 1427